Location: Helsinki
(60.1699°N, 24.9384°E)
Time: 04:24:20
(UTC+02:00)

ISS - Visible Passes

Search period start: 01 December 2021 00:00
Search period end: 11 December 2021 00:00
Orbit: 417 x 423 km, 51.6° (Epoch: 30 November)

Date Brightness Start Highest point End Pass type
(mag) Time Alt. Az. Time Alt. Az. Time Alt. Az.
01 Dec -1.4 16:34:37 10° SW 16:37:05 19° S 16:39:33 10° SE visible
01 Dec -1.4 18:10:46 10° SW 18:13:08 18° SSW 18:14:26 15° SSE visible
02 Dec -1.4 17:23:39 10° SW 17:26:08 19° S 17:28:38 10° SE visible
02 Dec -0.8 19:00:59 10° SW 19:02:04 11° SSW 19:02:15 11° SSW visible
03 Dec -1.3 16:36:34 10° SW 16:39:08 20° S 16:41:40 10° SE visible
03 Dec -0.9 18:13:20 10° SW 18:15:07 14° SSW 18:16:52 10° S visible
04 Dec -1.0 17:25:59 10° SW 17:28:08 16° SSW 17:30:16 10° SSE visible
05 Dec -1.0 16:38:45 10° SW 16:41:07 18° SSW 16:43:28 10° SSE visible
06 Dec -0.5 17:28:58 10° SW 17:30:00 11° SSW 17:31:01 10° S visible
07 Dec -0.7 16:41:16 10° SW 16:43:00 13° SSW 16:44:44 10° S visible
